EW0158 Weather Reports


Display with metric or nautical units.
time (UTC)temp
F
wind
direction
speed
MPH
gust
MPH
rain 1hr
in
rain 24hr
in
rain mn
in
humidity
%
barometer
mb
20260502215016 69 45 3.0 8.0 0.00 0.00 0.00 51 1022.0
20260502214016 68 90 8.0 13.0 0.00 0.00 0.00 54 1022.2
20260502213017 68 45 5.0 7.0 0.00 0.00 0.00 56 1022.3
20260502212016 69 67 7.0 13.0 0.00 0.00 0.00 56 1022.5
20260502211116 68 22 6.0 17.0 0.00 0.00 0.00 55 1022.6
20260502210016 68 67 10.0 16.0 0.00 0.00 0.00 57 1022.7
20260502205016 67 45 8.0 18.0 0.00 0.00 0.00 60 1022.8
20260502204016 68 67 12.0 18.0 0.00 0.00 0.00 55 1023.0
20260502203016 68 45 7.0 16.0 0.00 0.00 0.00 51 1023.0
20260502202016 69 45 8.0 15.0 0.00 0.01 0.00 57 1023.3
20260502201016 68 22 6.0 11.0 0.00 0.01 0.00 57 1023.2
20260502195016 67 90 8.0 16.0 0.00 0.02 0.00 59 1023.4
20260502194016 66 45 11.0 18.0 0.00 0.02 0.00 58 1023.4
20260502193116 67 67 9.0 16.0 0.00 0.02 0.00 62 1023.6
20260502192016 67 45 11.0 17.0 0.00 0.03 0.00 61 1023.8
20260502191017 67 45 11.0 17.0 0.00 0.03 0.00 56 1023.9
20260502190117 67 45 8.0 13.0 0.00 0.03 0.00 63 1023.9
20260502185016 67 45 10.0 18.0 0.00 0.03 0.00 63 1023.9
20260502184016 67 67 10.0 17.0 0.00 0.03 0.00 59 1024.0
20260502183016 66 45 7.0 13.0 0.00 0.03 0.00 67 1023.9
20260502182016 66 67 10.0 15.0 0.00 0.03 0.00 66 1024.0
20260502181016 65 67 11.0 17.0 0.00 0.03 0.00 68 1024.1
20260502164016 63 45 9.0 17.0 0.00 0.08 0.00 74 1024.9
20260502162016 62 45 9.0 15.0 0.00 0.17 0.00 75 1024.9
20260502161017 62 67 9.0 13.0 0.00 0.17 0.00 76 1025.0
20260502152016 59 45 9.0 13.0 0.00 0.17 0.00 79 1025.0
20260502151016 57 45 9.0 12.0 0.00 0.17 0.00 80 1024.7
20260502123016 44 337 5.0 6.0 0.00 0.21 0.00 98 1021.8
20260502122016 43 315 3.0 5.0 0.00 0.25 0.00 98 1021.9
20260502121016 43 315 3.0 4.0 0.00 0.27 0.00 98 1021.7
20260502114016 43 337 4.0 6.0 0.00 0.29 0.00 98 1021.2
20260502113021 43 0 5.0 6.0 0.00 0.33 0.00 98 1020.9
20260502112016 43 337 4.0 5.0 0.00 0.34 0.00 97 1020.9
20260502111021 43 337 3.0 5.0 0.00 0.35 0.00 97 1021.2
20260502110117 43 337 3.0 5.0 0.00 0.35 0.00 97 1020.9
20260502105016 43 337 4.0 6.0 0.00 0.35 0.00 97 1021.0
20260502104118 43 315 4.0 5.0 0.00 0.35 0.00 97 1020.9
20260502103017 43 315 2.0 3.0 0.00 0.35 0.00 97 1021.1
20260502102016 44 315 2.0 3.0 0.00 0.35 0.00 97 1020.7
20260502091016 45 0 4.0 6.0 0.00 0.48 0.00 96 1019.6
20260502070017 47 22 8.0 11.0 0.00 0.52 0.00 97
20260502065016 47 22 8.0 12.0 0.00 0.52 0.00 97 1018.9
20260502064016 47 22 8.0 12.0 0.00 0.53 0.00 97 1018.9
20260502063017 47 22 7.0 12.0 0.00 0.55 0.00 97 1019.2
20260502062017 47 22 8.0 11.0 0.00 0.57 0.00 98 1019.2
20260502061017 47 5 7.0 0.0 0.00 0.57 0.00 98 1019.3
20260502060016 47 0 7.0 11.0 0.00 0.57 0.00 97 1019.3
20260502054017 47 22 6.0 10.0 0.00 0.57 0.00 97 1019.1
20260502053016 47 0 6.0 9.0 0.00 0.58 0.00 97 1019.4
20260502052016 46 0 6.0 9.0 0.00 0.58 0.00 97 1019.2
20260502051017 46 22 5.0 8.0 0.00 0.58 0.00 97 1018.8
20260502050017 47 22 5.0 9.0 0.00 0.58 0.57 97 1018.6
20260502045016 47 45 7.0 11.0 0.00 0.58 0.57 96 1018.6
20260502044016 47 45 5.0 11.0 0.00 0.58 0.57 96 1018.8
20260502043016 47 45 7.0 10.0 0.00 0.58 0.57 96 1018.6
20260502042016 47 45 6.0 10.0 0.00 0.58 0.57 96 1018.8
20260502041016 47 45 6.0 9.0 0.00 0.58 0.57 95 1018.8
20260502035016 48 45 6.0 9.0 0.00 0.58 0.57 95 1018.8
20260502034016 48 22 5.0 7.0 0.00 0.58 0.57 95 1018.8
20260502032017 48 45 8.0 12.0 0.00 0.59 0.57 95 1018.3
20260502031016 48 45 6.0 10.0 0.00 0.59 0.57 95 1018.4
20260502030016 48 22 6.0 10.0 0.00 0.59 0.57 95 1018.0
20260502025021 48 45 7.0 11.0 0.00 0.59 0.57 94 1018.0
20260502024021 49 45 9.0 12.0 0.00 0.59 0.57 93
20260502023016 49 45 10.0 14.0 0.00 0.59 0.57 93 1017.8
20260502022016 49 45 12.0 17.0 0.00 0.60 0.57 94 1017.6
20260502021016 50 45 15.0 21.0 0.00 0.61 0.57 95 1017.3
20260502020017 50 45 10.0 16.0 0.00 0.63 0.57 96 1017.1
20260502015016 50 45 10.0 16.0 0.00 0.64 0.57 96 1017.0
20260502014116 51 45 11.0 16.0 0.00 0.66 0.57 96 1017.0
20260502013017 51 45 13.0 19.0 0.00 0.71 0.57 96 1017.0
20260502012017 51 45 13.0 18.0 0.00 0.73 0.57 96 1016.6
20260502011016 51 45 12.0 17.0 0.00 0.76 0.57 96 1016.4
20260502010016 51 45 13.0 18.0 0.00 0.80 0.57 95 1015.9
20260502005018 51 45 13.0 18.0 0.00 0.81 0.57 96 1016.0
20260502004016 51 45 14.0 19.0 0.00 0.81 0.57 96 1016.0
20260502003016 51 45 14.0 21.0 0.00 0.81 0.57 96 1015.7
20260502002016 51 45 15.0 21.0 0.00 0.81 0.57 96 1015.6
20260502001016 51 45 18.0 27.0 0.00 0.81 0.57 97 1015.4
20260502000016 51 45 17.0 25.0 0.00 0.81 0.57 97 1015.2
20260501235016 51 45 19.0 30.0 0.00 0.81 0.57 97 1014.9
20260501234116 51 22 15.0 23.0 0.00 0.81 0.57 96 1014.9
20260501233016 52 45 17.0 23.0 0.00 0.81 0.57 96 1014.6
20260501231117 52 45 14.0 19.0 0.00 0.81 0.57 97 1014.0
20260501230018 52 45 17.0 22.0 0.00 0.81 0.57 97 1013.9
20260501225017 53 0.0 0.0 0.00 0.81 0.57 97 1013.8
20260501224118 53 0.0 0.0 0.00 0.81 0.57 98 1013.9
20260501223015 52 53 11.0 0.0 0.00 0.81 0.57 98 1013.9
20260501221016 52 22 15.0 22.0 0.00 0.81 0.57 99 1013.8
20260501220016 52 45 15.0 23.0 0.00 0.81 0.57 99 1013.8